Flag for Brazil Weather past 2 weeks in Cuiabá, Mato Grosso, Brazil

Now
82 °F

Partly sunny.


Feels Like: 88 °F
Forecast: 75 / 83 °F
Wind: 15 mph from Northwest

Location: Cuiaba Aeroporto

Current Time: Dec 20, 2014 at 11:37:26 AM

Latest Report: Dec 20, 2014 at 11:00 AM


Visibility: N/A

Pressure: 29.86 "Hg

Humidity: 74%

Dew point: 73 °F

Location of CuiabáLocation

Historic Weather in Cuiabá — Graph

°F

Cuiabá temperature yesterday

Maximum temperature yesterday: 90 °F (at 4:00 PM)
Minimum temperature yesterday: 73 °F (at 12:00 AM)
Average temperature yesterday: 79 °F

Past Weeks' High & Low Weather Summary

 TemperatureHumidityPressure
High93 °F (Dec 5, 2:00 PM)100% (Dec 13, 4:00 AM)29.92 "Hg (Dec 13, 4:00 AM)
Low72 °F (Dec 7, 4:00 AM)34% (Dec 5, 2:00 PM)29.68 "Hg (Dec 19, 5:00 PM)
Average80 °F79%29.83 "Hg
* Reported Dec 5 10:00 AM — Dec 20 10:00 AM, Cuiabá, Weather by CustomWeather, © 2014

Note: Actual official high and low records may vary slightly from our data, if they occured in-between our weather recording intervals... More about our weather records

Advertising

Cuiabá weather history for previous 24 hours

 ConditionsComfort  
Time TempWeatherWind HumidityBarometerVisibility
10:00 AM
Dec 20
81 °FPartly sunny.18 mph79%29.86 "HgN/A
9:00 AM81 °FPartly sunny.9 mph79%29.83 "HgN/A
8:00 AM77 °FPartly sunny.10 mph89%29.83 "HgN/A
7:00 AM77 °FPassing clouds.3 mph89%29.80 "HgN/A
6:00 AM77 °FPassing clouds.8 mph89%29.77 "HgN/A
5:00 AM77 °FPassing clouds.8 mph89%29.74 "HgN/A
4:00 AM77 °FPassing clouds.6 mph94%29.74 "HgN/A
3:00 AM77 °FPassing clouds.9 mph89%29.74 "HgN/A
2:00 AM77 °FPassing clouds.9 mph94%29.77 "HgN/A
1:00 AM77 °FPassing clouds.6 mph94%29.80 "HgN/A
12:00 AM77 °FPassing clouds.5 mph89%29.80 "HgN/A
11:00 PM
Dec 19
77 °FPassing clouds.2 mph94%29.80 "HgN/A
10:00 PM77 °FPassing clouds.3 mph94%29.80 "HgN/A
9:00 PM75 °FPassing clouds.3 mph94%29.77 "HgN/A
8:00 PM75 °FPartly sunny.3 mph94%29.74 "HgN/A
7:00 PM75 °FBroken clouds.5 mph89%29.74 "HgN/A
6:00 PM81 °FScattered showers. Partly sunny.15 mph79%29.71 "HgN/A
5:00 PM88 °FScattered clouds.8 mph62%29.68 "HgN/A
4:00 PM90 °FScattered clouds.6 mph59%29.71 "HgN/A
3:00 PM88 °FScattered clouds.7 mph55%29.74 "HgN/A
2:00 PM88 °FPartly sunny.14 mph59%29.77 "HgN/A
1:00 PM88 °FScattered clouds.10 mph62%29.80 "HgN/A
12:00 PM88 °FScattered clouds.10 mph59%29.83 "HgN/A
11:00 AM86 °FPassing clouds.10 mph62%29.83 "HgN/A
Weather by CustomWeather, © 2014

See weather overviewHow to use our weather pages